Weather History for Rutland, VT

Change the Weather History Date:

Saturday, October 6, 2012

  Actual Average Record
Temperature  
Mean Temperature 57 °F -  
Max Temperature 68 °F - 80 °F (1990)
Min Temperature 46 °F - 21 °F (1965)
Degree Days  
Heating Degree Days 8    
Month to date heating degree days 35  
Since 1 July heating degree days 266  
Cooling Degree Days 0    
Month to date cooling degree days 0  
Year to date cooling degree days 411  
Growing Degree Days 6 (Base 50)    
Moisture  
Dew Point 52 °F    
Average Humidity 82    
Maximum Humidity 97    
Minimum Humidity 66    
Precipitation  
Precipitation 0.11 in - 1.28 in (1991)
Month to date precipitation 0.64  
Year to date precipitation 18.87  
Sea Level Pressure  
Sea Level Pressure 29.81 in    
Wind  
Wind Speed 6 mph (South)    
Max Wind Speed 10 mph    
Max Gust Speed 17 mph    
Visibility 10 miles    
Events      
T = Trace of Precipitation, MM = Missing Value Source: NWS Daily Summary

Daily Weather History Graph

Daily Weather History Graph

Search for Another Location

Airport:

Trip Planner

Search our weather history database for the weather conditions in past years. The results will help you decide how hot, cold, wet, or windy it might be!

Date:

Astronomy

Oct. 06, 2012 Rise Set
Actual Time 6:55 AM EDT 6:23 PM EDT
Civil Twilight 6:27 AM EDT 6:51 PM EDT
Nautical Twilight 5:53 AM EDT 7:24 PM EDT
Astronomical Twilight 5:20 AM EDT 7:58 PM EDT
Moon 10:28 PM EDT (10/6) 12:56 PM EDT (10/6)
Length of Visible Light 12h 24m
Length of Day
11h 27m
Waning Gibbous, 65% of the Moon is Illuminated
Oct 6
Waning Gibbous
Oct 8
Last Quarter
Oct 15
New
Oct 21
First Quarter
Oct 29
Full

Hourly Weather History & Observations

Time (EDT) Temp. Windchill Dew Point Humidity Pressure Visibility Wind Dir Wind Speed Gust Speed Precip Events Conditions
12:15 AM 62.6 °F - 57.2 °F 82% 29.89 in 8.0 mi South 6.9 mph - N/A   Overcast
12:35 AM 62.6 °F - 59.0 °F 88% 29.89 in 8.0 mi SSE 4.6 mph - 0.03 in   Overcast
12:55 AM 60.8 °F - 59.0 °F 94% 29.88 in 9.0 mi ESE 6.9 mph - 0.04 in   Overcast
1:15 AM 60.8 °F - 57.2 °F 88% 29.87 in 10.0 mi SSE 8.1 mph - N/A   Overcast
1:35 AM 60.8 °F - 59.0 °F 94% 29.86 in 10.0 mi SE 6.9 mph - N/A   Overcast
1:55 AM 62.6 °F - 59.0 °F 88% 29.86 in 10.0 mi SE 6.9 mph - N/A   Overcast
2:15 AM 60.8 °F - 59.0 °F 94% 29.85 in 10.0 mi SSE 4.6 mph - N/A   Overcast
2:55 AM 60.8 °F - 59.0 °F 94% 29.82 in 10.0 mi SE 5.8 mph - N/A   Overcast
3:15 AM 60.8 °F - 59.0 °F 94% 29.82 in 10.0 mi SE 4.6 mph - N/A   Overcast
3:35 AM 60.8 °F - 59.0 °F 94% 29.81 in 10.0 mi ESE 8.1 mph - N/A   Overcast
3:55 AM 60.8 °F - 57.2 °F 88% 29.81 in 10.0 mi ESE 5.8 mph - N/A   Overcast
4:15 AM 60.8 °F - 57.2 °F 88% 29.80 in 10.0 mi SE 8.1 mph - N/A   Mostly Cloudy
4:35 AM 60.8 °F - 57.2 °F 88% 29.79 in 10.0 mi ESE 6.9 mph - N/A   Clear
4:55 AM 60.8 °F - 57.2 °F 88% 29.78 in 10.0 mi ESE 9.2 mph - N/A   Clear
5:35 AM 60.8 °F - 57.2 °F 88% 29.77 in 10.0 mi SE 9.2 mph - N/A   Clear
5:55 AM 60.8 °F - 57.2 °F 88% 29.77 in 10.0 mi SE 8.1 mph - N/A   Clear
6:15 AM 60.8 °F - 57.2 °F 88% 29.77 in 10.0 mi SE 9.2 mph - N/A   Clear
6:35 AM 60.8 °F - 57.2 °F 88% 29.76 in 10.0 mi SE 9.2 mph - N/A   Clear
7:15 AM 60.8 °F - 55.4 °F 82% 29.75 in 10.0 mi SE 9.2 mph - N/A   Mostly Cloudy
7:35 AM 60.8 °F - 55.4 °F 82% 29.76 in 10.0 mi SE 8.1 mph - N/A   Mostly Cloudy
7:55 AM 60.8 °F - 55.4 °F 82% 29.75 in 10.0 mi SE 8.1 mph - N/A   Overcast
8:15 AM 62.6 °F - 57.2 °F 82% 29.75 in 10.0 mi SE 4.6 mph - N/A   Overcast
8:35 AM 62.6 °F - 57.2 °F 82% 29.75 in 10.0 mi SSE 5.8 mph - N/A   Overcast
8:55 AM 62.6 °F - 57.2 °F 82% 29.74 in 10.0 mi South 5.8 mph - N/A   Overcast
9:15 AM 64.4 °F - 59.0 °F 83% 29.74 in 10.0 mi South 4.6 mph - N/A   Overcast
9:36 AM 64.4 °F - 59.0 °F 83% 29.73 in 10.0 mi South 5.8 mph - N/A   Overcast
10:15 AM 66.2 °F - 57.2 °F 73% 29.71 in 10.0 mi SSW 4.6 mph - N/A   Overcast
10:35 AM 66.2 °F - 55.4 °F 68% 29.71 in 10.0 mi SSW 3.5 mph - N/A   Overcast
10:55 AM 66.2 °F - 57.2 °F 73% 29.70 in 10.0 mi SSE 3.5 mph - N/A   Overcast
11:15 AM 66.2 °F - 55.4 °F 68% 29.70 in 10.0 mi Calm Calm - N/A   Overcast
11:35 AM 66.2 °F - 55.4 °F 68% 29.70 in 10.0 mi WSW 8.1 mph 16.1 mph N/A   Overcast
11:55 AM 66.2 °F - 55.4 °F 68% 29.71 in 10.0 mi WSW 9.2 mph - N/A   Overcast
12:35 PM 64.4 °F - 57.2 °F 77% 29.71 in 10.0 mi WSW 4.6 mph - N/A   Overcast
12:55 PM 62.6 °F - 55.4 °F 77% 29.72 in 10.0 mi WSW 10.4 mph - N/A   Overcast
1:15 PM 62.6 °F - 55.4 °F 77% 29.72 in 9.0 mi West 12.7 mph 19.6 mph N/A   Overcast
1:35 PM 57.2 °F - 51.8 °F 82% 29.73 in 10.0 mi NNW 12.7 mph 20.7 mph N/A   Overcast
1:55 PM 55.4 °F - 51.8 °F 88% 29.75 in 10.0 mi North 10.4 mph - N/A   Overcast
2:15 PM 53.6 °F - 51.8 °F 94% 29.77 in 10.0 mi North 8.1 mph - N/A   Overcast
2:35 PM 53.6 °F - 51.8 °F 94% 29.78 in 10.0 mi North 8.1 mph - N/A   Overcast
2:55 PM 53.6 °F - 51.8 °F 94% 29.79 in 7.0 mi North 4.6 mph - 0.11 in   Overcast
3:15 PM 53.6 °F - 51.8 °F 94% 29.80 in 9.0 mi NNW 4.6 mph - N/A   Overcast
3:35 PM 53.6 °F - 51.8 °F 94% 29.80 in 10.0 mi North 5.8 mph - N/A   Overcast
3:55 PM 53.6 °F - 51.8 °F 94% 29.80 in 10.0 mi North 5.8 mph - N/A   Overcast
4:15 PM 53.6 °F - 50.0 °F 88% 29.81 in 10.0 mi North 4.6 mph - N/A   Overcast
4:35 PM 51.8 °F - 50.0 °F 94% 29.81 in 10.0 mi North 4.6 mph - N/A   Overcast
4:55 PM 51.8 °F - 50.0 °F 94% 29.81 in 10.0 mi Calm Calm - N/A   Overcast
5:15 PM 51.8 °F - 48.2 °F 88% 29.82 in 10.0 mi Calm Calm - N/A   Overcast
5:35 PM 51.8 °F - 50.0 °F 94% 29.82 in 10.0 mi Calm Calm - N/A   Overcast
5:55 PM 51.8 °F - 48.2 °F 88% 29.82 in 10.0 mi Calm Calm - N/A   Overcast
6:15 PM 51.8 °F - 50.0 °F 94% 29.83 in 10.0 mi NE 3.5 mph - N/A   Overcast
6:35 PM 51.8 °F - 50.0 °F 94% 29.84 in 10.0 mi Calm Calm - N/A   Overcast
6:55 PM 51.8 °F - 48.2 °F 88% 29.85 in 10.0 mi Calm Calm - N/A   Overcast
7:15 PM 51.8 °F - 48.2 °F 88% 29.86 in 10.0 mi NW 3.5 mph - N/A   Overcast
7:35 PM 51.8 °F - 48.2 °F 88% 29.87 in 10.0 mi Calm Calm - N/A   Mostly Cloudy
7:55 PM 50.0 °F - 46.4 °F 87% 29.88 in 10.0 mi NW 4.6 mph - N/A   Overcast
8:15 PM 51.8 °F - 42.8 °F 71% 29.89 in 10.0 mi WNW 4.6 mph - N/A   Overcast
8:36 PM 50.0 °F - 39.2 °F 66% 29.89 in 10.0 mi West 3.5 mph - N/A   Partly Cloudy
8:55 PM 48.2 °F - 37.4 °F 66% 29.90 in 10.0 mi West 3.5 mph - N/A   Partly Cloudy
9:15 PM 48.2 °F - 37.4 °F 66% 29.90 in 10.0 mi West 4.6 mph - N/A   Mostly Cloudy
9:35 PM 46.4 °F 44.3 °F 41.0 °F 81% 29.91 in 10.0 mi WSW 4.6 mph - N/A   Mostly Cloudy
9:55 PM 48.2 °F - 41.0 °F 76% 29.92 in 10.0 mi Calm Calm - N/A   Mostly Cloudy
10:15 PM 46.4 °F - 42.8 °F 87% 29.93 in 10.0 mi Calm Calm - N/A   Overcast
10:35 PM 46.4 °F 44.3 °F 42.8 °F 87% 29.93 in 10.0 mi WNW 4.6 mph - N/A   Mostly Cloudy
10:55 PM 48.2 °F - 37.4 °F 66% 29.93 in 10.0 mi West 10.4 mph 17.3 mph N/A   Partly Cloudy
11:35 PM 48.2 °F - 37.4 °F 66% 29.94 in 10.0 mi West 11.5 mph 16.1 mph N/A   Clear
11:55 PM 48.2 °F - 37.4 °F 66% 29.94 in 10.0 mi NW 5.8 mph - N/A   Clear